Content
SEND FEEDBACK

Daily
Averages
Monthly
Summary
United States of America

CROOKSTON, NEBRASKA


Home > North America > United States > Nebraska
Elevation: 2586 feet     Latitude: 42 52N     Longitude: 100 33W

WEATHER
 
SELECT A DAY
Number of Records: 223,086;   Date Range: 1/1/95 - 12/16/14
 
SHARE

PRINT THIS DATA

[ ← Previous Day ]
WEATHER ALMANAC - FEBRUARY 13, 2013
[ Next Day → ]
[ °C ]   °F
Weather ElementAverageHighLow
Temperature34.2 °F48 °F (3:52 pm)19.9 °F (6:52 am)
Dewpoint24.4 °F30 °F (2:52 pm)15.1 °F (5:52 am)
Humidity68.6 %81 % (2:52 am)48 % (4:52 pm)
Barometer29.87 in29.95 in (11:52 pm)29.77 in (2:52 pm)
Wind Speed11.5 mph20.7 mph (2:52 pm)
Wind Gust24.2 mph (8:52 pm)
Weather ElementAverage
Visibility10 mi
Wind DirectionW (269.1 °)

Weather ElementTotal
Precipitation---
Heating Degree Days31.1 (Base 65)
Averaged from 23 records on February 13, 2013
WEATHER CONDITIONS BREAKOUT
WIND DIRECTION BREAKOUT
WEATHER BY HOUR - FEBRUARY 13, 2013
[ °C ]   °F
Local TimeTemperatureDewpointHumidityBarometerVisibilityWind DirectionWind SpeedGust SpeedPrecipitationEventsConditions
1:52 AM24.8 °F19.4 °F80 %29.88 in10.0 miWSW (250°)4.6 mphScattered Clouds
2:52 AM25.0 °F19.9 °F81 %29.94 in10.0 miWSW (240°)5.8 mphPartly Cloudy
3:52 AM25.0 °F19.0 °F78 %29.92 in10.0 miSW (230°)5.8 mphClear
4:52 AM23.0 °F17.1 °F78 %29.92 in10.0 miWest (260°)6.9 mphClear
5:52 AM21.0 °F15.1 °F78 %29.92 in10.0 miWSW (250°)5.8 mphClear
6:52 AM19.9 °F15.1 °F81 %29.91 in10.0 miSW (230°)6.9 mphClear
7:52 AM19.9 °F15.1 °F81 %29.90 in10.0 miWSW (240°)9.2 mphClear
8:52 AM26.1 °F18.0 °F71 %29.88 in10.0 miWSW (240°)9.2 mphClear
9:52 AM33.1 °F21.9 °F64 %29.87 in10.0 miWest (260°)10.4 mphScattered Clouds
10:52 AM36.0 °F24.1 °F62 %29.86 in10.0 miWest (270°)18.4 mphOvercast
11:52 AM39.0 °F26.1 °F60 %29.86 in10.0 miWest (280°)18.4 mphOvercast
12:52 PM41.0 °F28.0 °F60 %29.81 in10.0 miWest (260°)16.1 mphPartly Cloudy
1:52 PM45.0 °F28.9 °F53 %29.79 in10.0 miWest (270°)16.1 mphClear
2:52 PM46.0 °F30.0 °F54 %29.77 in10.0 miWest (260°)20.7 mphClear
3:52 PM48.0 °F30.0 °F50 %29.77 in10.0 miWest (270°)20.7 mphOvercast
4:52 PM46.9 °F28.0 °F48 %29.79 in10.0 miWNW (300°)11.5 mph20.7 mphMostly Cloudy
5:52 PM41.0 °F28.9 °F62 %29.82 in10.0 miWest (280°)9.2 mphMostly Cloudy
6:52 PM39.0 °F28.9 °F67 %29.85 in10.0 miWNW (290°)11.5 mphClear
7:52 PM37.9 °F30.0 °F73 %29.88 in10.0 miWNW (300°)10.4 mphMostly Cloudy
8:52 PM39.0 °F30.0 °F70 %29.90 in10.0 miNW (310°)13.8 mph24.2 mphOvercast
9:52 PM37.9 °F30.0 °F73 %29.91 in10.0 miNW (310°)12.7 mphOvercast
10:52 PM35.1 °F28.9 °F78 %29.94 in10.0 miWNW (300°)10.4 mphClear
11:52 PM36.0 °F28.9 °F76 %29.95 in10.0 miWNW (290°)10.4 mphMostly Cloudy
Hourly data recorded from KVTN, located miles away from Crookston, Nebraska







STORIES FROM OUR PARTNERS